Overview Statistics Trail Chart Weather Telemetry Raw packets
 

This is the latest recevied weather packets stored in our database for station/object KC5DAQ-29. If no packets are shown the sender has not sent any weather packets the latest 10 day(s).

<< 513 514 515 516 517 518 519 >>
Time Temp. Humidity Pressure Rain* Wind** Luminosity Snow
1787952536 29.44° C 100% 1012.3 hPa 0 mm - - -
1787952475 29.44° C 100% 1012.4 hPa 0 mm - - -
1787952415 29.44° C 100% 1012.4 hPa 0 mm - 93 W/m² -
1787952355 29.44° C 100% 1012.4 hPa 0 mm - 93 W/m² -
1787952295 29.44° C 100% 1012.3 hPa 0 mm - 93 W/m² -
1787952235 30° C 100% 1012.2 hPa 0 mm - 93 W/m² -
1787952174 30° C 100% 1012.2 hPa 0 mm - 93 W/m² -
1787952114 30.56° C 100% 1012.1 hPa 0 mm - 93 W/m² -
1787952055 30.56° C 100% 1012.2 hPa 0 mm - 93 W/m² -
1787951994 30.56° C 100% 1012.4 hPa 0 mm - 93 W/m² -
1787951933 30.56° C 100% 1012.3 hPa 0 mm - 93 W/m² -
1787951875 30.56° C 100% 1012.2 hPa 0 mm - 93 W/m² -
1787951815 31.11° C 100% 1012.2 hPa 0 mm - 69 W/m² -
1787951754 31.11° C 100% 1012 hPa 0 mm - 69 W/m² -
1787951694 31.11° C 100% 1011.9 hPa 0 mm - 69 W/m² -
1787951634 31.67° C 100% 1012 hPa 0 mm - 69 W/m² -
1787951573 31.67° C 100% 1011.9 hPa 0 mm - 63 W/m² -
1787951514 31.67° C 100% 1011.9 hPa 0 mm - 55 W/m² -
1787951454 32.22° C 100% 1011.8 hPa 0 mm - 55 W/m² -
1787951394 32.78° C 100% 1012 hPa 0 mm - 65 W/m² -
1787951334 32.78° C 100% 1012.1 hPa 0 mm - 65 W/m² -
1787951275 33.33° C 98% 1012 hPa 0 mm - 65 W/m² -
1787951214 33.89° C 95% 1012 hPa 0 mm - 65 W/m² -
1787951155 34.44° C 72% 1012.1 hPa 0 mm - 77 W/m² -
1787951095 35° C 72% 1012 hPa 0 mm - 77 W/m² -

* Rain latest hour (hover to see other rain measurements)
** Current wind speed in m/s (hover to see current wind gust speed)